Temperature
14 14 15 15 16 16 16 17 17 17 18 18 18 18 18 18 18 18 18 18 18 18 18 18 18 18 18 18 18 18 18 17 17 17 17 17 17 17 17 17 17 17 17
13 14 14 15 15 15 15 16 16 16 17 17 17 18 18 18 18 18 18 18 18 18 18 18 18 17 17 18 17 17 17 17 17 17 17 17 17 17 17 17 17 17 17
12 12 13 13 14 14 14 15 15 15 16 16 17 17 17 18 18 18 18 18 18 18 17 18 18 17 17 17 17 17 17 17 17 17 17 17 17 17 17 17 17 17 17
12 12 12 13 13 13 14 14 14 15 15 15 16 16 17 17 17 18 18 18 18 18 17 17 17 17 17 17 17 17 17 17 17 17 17 17 17 17 17 17 17 17 17
11 11 12 12 12 13 13 13 14 14 15 15 15 16 16 16 17 17 17 17 17 17 17 17 17 17 17 17 17 16 16 16 16 16 16 16 16 16 16 16 17 17 17
11 11 12 12 12 12 13 13 13 14 14 14 15 15 15 16 16 16 16 16 16 17 17 17 17 16 16 16 16 16 16 16 15 15 16 16 15 16 16 16 16 16 16
11 11 11 12 12 12 12 13 13 13 13 14 14 14 15 15 15 15 16 16 16 16 16 16 16 16 16 15 15 15 15 15 15 15 15 15 15 15 15 15 15 15 16
11 11 11 11 12 12 12 12 13 13 13 13 13 14 14 14 15 15 15 15 15 15 15 15 15 15 15 15 15 15 15 15 15 15 15 15 15 15 15 15 14 14 15
11 11 11 11 11 12 12 12 12 12 13 13 13 13 14 14 14 14 14 15 15 15 15 15 15 14 14 14 14 14 14 14 14 14 14 14 14 14 14 14 14 14 14
11 11 11 11 11 11 12 12 12 12 12 13 13 13 13 13 14 14 14 14 14 14 14 14 14 14 14 14 14 14 14 14 14 14 14 14 14 14 14 14 14 14 14
11 11 11 11 11 11 12 12 12 12 12 12 13 13 13 13 13 14 14 14 14 14 14 14 14 14 14 14 14 14 14 14 14 14 14 14 14 14 14 14 14 14 14
12 12 11 11 11 11 11 11 12 12 12 12 12 13 13 13 13 13 14 14 14 14 14 14 14 14 14 14 14 14 14 14 14 14 14 14 14 14 14 14 14 14 14
12 12 12 11 11 11 11 11 11 11 11 12 12 12 13 13 13 13 13 13 13 14 14 14 14 14 14 14 14 14 14 14 14 14 14 14 14 14 14 14 14 14 14
13 12 12 12 11 11 11 11 11 11 12 12 12 12 12 12 13 13 13 13 13 13 13 13 14 14 14 14 14 14 14 14 14 14 14 14 14 14 14 14 14 14 14
13 12 12 12 12 11 11 11 11 11 11 12 12 12 12 12 12 12 13 13 13 13 13 13 13 13 13 13 13 14 14 14 14 14 14 14 14 14 14 14 14 14 14
13 13 12 12 12 11 11 11 11 11 11 11 11 11 11 12 12 12 12 12 12 13 13 13 13 13 13 13 13 13 13 14 14 14 14 14 14 14 14 14 14 14 13
13 13 13 12 12 12 11 11 11 11 11 11 11 11 11 11 11 11 12 12 12 12 12 12 12 12 12 13 13 13 13 13 13 13 14 14 14 14 14 14 14 13 13
13 13 13 13 12 12 12 11 11 11 11 11 11 11 11 11 11 11 11 11 11 11 12 12 12 12 12 12 13 13 13 13 13 13 13 13 13 14 13 13 13 13 13
14 13 13 13 13 12 12 12 12 11 11 11 11 11 10 11 11 11 11 11 11 11 11 11 11 12 12 12 12 12 12 12 13 13 13 13 13 13 13 13 13 13 13
14 14 14 13 13 13 12 12 12 12 11 11 11 11 10 10 11 10 10 10 11 11 11 11 11 11 11 11 11 12 12 12 12 12 13 13 13 13 13 13 13 13 13
14 14 14 14 13 13 13 12 12 12 11 11 11 11 11 10 10 10 10 10 10 10 11 11 10 11 11 11 11 11 11 11 12 12 12 12 12 13 13 13 12 12 12
14 14 14 14 14 13 13 13 12 12 12 11 11 11 11 11 10 10 10 10 10 10 10 10 10 10 10 11 10 11 11 11 11 11 12 12 12 12 12 12 12 12 12
15 14 14 14 14 14 13 13 13 12 12 11 11 11 11 11 10 10 10 10 10 10 10 10 10 10 10 10 10 10 10 10 11 11 11 11 11 12 12 12 12 12 11
15 15 15 14 14 14 13 13 13 12 12 11 11 11 11 10 10 10 10 10 10 10 10 10 10 10 10 10 10 10 10 10 10 10 10 10 11 11 11 11 11 11 11
15 15 15 15 14 14 14 13 13 12 12 12 11 11 11 10 10 10 10 10 10 9 9 9 9 10 10 9 10 10 10 10 10 10 10 10 10 10 11 11 10 10 10
15 15 15 15 14 14 14 13 13 13 12 12 11 11 11 10 10 10 10 10 10 9 9 9 9 9 9 9 9 10 9 9 9 10 10 10 10 10 10 10 10 10 10
Wind_Speed
12 12 12 12 11 11 11 10 10 9 7 4 3 3 4 5 5 6 8 9 10 10 9 6 5 5 5 6 6 4 4 2 3 3 1 2 1 2 3 3 3 5 7
16 16 15 13 12 11 11 10 10 9 7 5 4 3 3 4 5 5 6 8 9 9 9 8 6 6 5 5 5 4 4 3 3 4 3 0 3 2 2 3 4 5 5
17 17 16 14 12 11 11 11 10 10 8 7 5 4 2 2 3 5 6 6 7 8 6 6 6 6 5 5 5 5 5 4 2 2 4 4 5 2 2 2 2 3 4
16 15 15 15 13 12 11 10 10 9 8 7 5 4 3 4 4 4 4 4 6 7 7 6 6 7 6 6 6 5 4 4 3 2 1 2 3 3 1 2 1 2 4
15 15 14 13 13 12 11 9 10 9 8 7 5 4 4 4 3 2 3 4 5 5 6 7 6 7 6 7 6 6 5 3 4 3 2 2 1 1 2 2 2 2 2
15 14 13 12 11 11 10 9 9 9 8 7 6 4 4 3 2 1 2 3 3 3 4 5 6 6 5 6 6 6 6 5 4 4 4 4 3 3 3 4 3 3 3
14 14 15 14 14 13 12 10 9 8 9 8 7 5 4 3 2 0 1 2 2 2 3 4 4 4 4 5 5 6 6 6 6 5 4 4 3 3 3 3 3 3 2
14 14 15 14 13 12 12 11 10 9 9 8 7 6 5 3 3 3 2 2 2 2 3 3 4 4 4 4 4 4 5 5 5 5 5 4 4 4 4 4 4 2 2
15 15 15 14 13 12 12 11 11 10 9 8 8 7 7 6 5 4 4 3 3 3 3 3 3 4 4 4 4 3 3 4 4 4 5 4 4 4 4 4 4 4 3
14 15 14 14 13 12 12 11 11 10 9 9 8 7 7 6 6 5 5 4 3 3 3 3 3 3 3 3 3 3 3 3 3 3 4 4 3 4 4 4 4 4 4
12 12 12 13 13 12 12 12 12 11 11 10 9 9 8 8 7 7 6 5 4 4 3 3 3 3 2 2 3 3 3 3 2 2 3 3 3 3 3 3 4 4 4
10 10 11 12 12 12 12 12 11 11 11 10 10 10 9 9 9 9 8 7 6 5 5 4 4 4 3 2 2 3 3 3 2 2 2 2 2 3 3 3 3 3 3
9 9 10 10 11 11 11 11 11 11 10 10 10 11 10 10 10 9 9 9 8 7 7 6 6 5 4 3 2 2 2 2 2 2 2 2 3 2 2 3 3 2 3
8 8 8 9 9 9 10 10 10 10 10 10 10 10 10 9 9 9 9 9 8 8 8 7 6 6 5 5 4 3 2 2 2 1 2 2 2 3 3 3 3 3 3
9 8 8 8 8 9 9 9 9 10 9 9 10 9 9 8 8 9 9 9 9 9 7 8 7 6 5 5 5 4 3 2 2 2 2 1 1 2 3 3 3 4 3
8 8 8 8 8 8 8 8 9 9 8 9 9 9 9 9 9 8 8 9 9 8 8 8 7 7 6 8 7 4 3 2 2 2 2 2 3 3 4 5 5 5 4
7 7 7 6 6 6 5 6 7 7 8 8 8 9 9 9 9 9 9 9 9 8 8 8 8 7 8 10 9 6 3 3 2 2 2 2 3 5 4 6 7 6 6
7 7 6 6 5 4 5 5 6 6 7 8 8 8 8 8 8 9 9 8 7 7 7 8 8 7 9 11 9 8 6 5 4 3 2 3 3 3 5 6 6 6 6
5 4 4 4 4 4 4 4 6 6 7 7 7 7 7 7 8 8 8 7 7 7 7 7 8 9 10 13 11 8 5 5 6 5 4 3 3 5 7 7 7 6 5
4 4 4 3 3 3 3 4 5 5 6 5 5 6 6 7 7 7 7 6 6 6 6 8 8 9 9 12 11 9 5 5 5 6 6 7 6 6 7 6 6 6 4
4 4 3 3 4 3 2 3 4 4 4 4 5 6 6 6 6 6 6 6 6 7 7 8 8 9 10 12 13 11 5 5 5 6 6 6 9 9 9 7 5 6 6
5 4 4 4 4 3 2 2 3 2 2 4 6 6 7 6 6 7 7 7 7 8 8 8 8 7 8 10 11 13 11 8 6 6 5 7 12 13 11 8 9 10 8
4 3 3 4 4 3 1 1 2 1 3 4 5 5 6 6 6 7 7 6 7 6 7 7 7 7 7 8 13 13 12 11 7 6 10 12 13 12 11 13 12 9 6
3 4 4 4 5 4 2 1 0 2 4 4 4 4 5 5 6 6 5 5 6 6 6 6 6 6 7 7 6 6 6 8 7 6 9 13 15 11 11 10 9 7 6
3 3 3 3 4 4 2 1 2 4 4 3 3 3 3 3 4 4 4 4 3 3 3 3 4 5 6 7 8 6 5 4 5 5 6 7 6 7 7 7 7 7 6
2 3 3 3 3 3 2 1 1 3 4 3 2 2 2 2 2 2 3 5 4 7 8 6 4 4 6 8 10 11 11 10 9 7 6 6 6 6 6 6 6 6 6
Wind_Direction
346 345 345 345 345 343 341 337 335 333 333 329 302 263 239 230 224 221 216 209 209 207 201 207 204 191 199 202 183 161 160 157 134 110 64 341 316 237 235 227 225 228 229
348 347 345 344 344 338 334 333 331 327 327 319 292 266 253 242 229 224 213 206 207 205 205 197 195 188 193 193 181 163 153 155 153 145 134 256 316 281 239 230 228 229 220
343 340 340 338 338 337 334 332 326 323 322 321 306 293 274 253 224 221 214 204 200 199 195 192 189 182 181 191 188 178 165 164 171 164 152 165 218 259 291 260 242 230 218
341 338 337 335 334 331 328 326 325 325 323 322 315 294 272 259 246 233 214 199 189 183 183 182 182 179 176 176 182 173 170 157 167 174 166 165 164 170 260 306 290 250 231
339 337 335 330 328 329 327 329 329 331 331 328 316 300 286 274 273 237 196 189 185 183 176 176 176 179 177 175 173 171 171 166 169 173 167 156 149 143 168 246 291 306 259
338 337 337 335 332 331 331 335 336 336 338 338 335 323 305 295 289 230 186 180 174 170 172 170 172 173 173 177 180 180 179 181 180 182 178 169 169 181 179 208 235 261 282
341 342 343 342 340 340 341 341 341 344 347 348 353 353 341 332 344 346 161 149 154 153 162 160 162 163 171 179 179 180 181 185 187 188 189 189 185 163 169 184 210 231 271
347 348 346 343 343 346 350 351 352 354 355 356 0 4 7 9 15 30 64 88 105 122 134 144 152 156 160 167 170 174 178 180 189 197 194 194 198 187 180 176 176 206 257
349 350 350 351 351 353 357 358 1 4 4 5 8 13 17 26 30 36 53 68 74 98 119 130 138 145 151 159 157 170 186 180 188 194 197 199 201 198 201 189 180 177 208
348 351 353 354 355 358 3 7 7 9 9 14 16 20 17 23 31 41 46 53 68 80 101 114 123 129 137 142 146 162 179 183 190 192 201 207 206 202 197 193 191 189 185
344 347 351 356 360 5 11 12 10 14 16 17 19 22 22 25 32 39 40 46 54 62 84 102 110 115 124 133 148 171 170 175 186 184 192 212 203 199 192 181 180 188 178
341 346 352 357 3 6 9 10 11 14 14 15 22 24 25 31 35 36 34 40 47 48 55 70 83 89 91 99 139 161 158 157 169 176 179 204 194 186 180 173 177 182 184
341 346 352 357 0 3 5 8 11 12 14 19 25 27 29 31 32 32 32 36 42 43 45 56 63 64 65 64 63 89 118 135 145 148 159 180 165 170 158 157 162 165 163
344 350 351 353 356 359 3 6 8 10 15 22 27 28 25 26 27 30 33 34 39 43 43 44 48 51 49 46 43 51 65 80 86 114 150 165 163 165 152 146 142 137 131
347 351 351 351 356 359 359 2 6 9 13 21 26 22 18 21 28 31 31 35 37 39 40 42 36 31 35 32 32 32 37 44 51 55 60 79 130 149 144 132 132 128 120
338 343 347 350 352 354 354 359 3 4 12 22 21 17 19 24 27 28 29 33 33 31 35 34 28 26 25 21 32 40 42 49 58 52 45 51 66 93 102 113 123 131 132
329 337 337 333 335 343 351 355 352 0 17 21 19 17 20 25 24 28 32 30 28 31 32 26 24 20 14 25 33 44 57 58 56 52 50 64 67 82 93 91 87 78 88
328 329 329 330 331 342 353 354 1 10 18 19 18 16 20 24 24 30 30 24 25 29 27 25 21 19 17 26 38 55 58 59 53 47 56 76 64 84 109 99 82 68 59
307 303 305 307 322 338 348 4 7 10 18 16 14 13 19 25 27 28 23 20 28 32 29 25 24 22 17 26 41 52 54 57 51 45 50 70 72 88 106 104 97 81 63
318 318 321 327 332 332 356 17 8 11 11 6 10 17 26 34 32 28 24 21 29 30 30 33 27 24 21 27 41 49 56 56 47 41 38 44 63 86 97 103 107 102 82
325 332 340 336 322 325 10 20 10 3 353 16 32 31 30 40 37 34 29 27 30 32 32 33 27 26 23 27 38 47 56 62 59 51 41 39 60 73 82 86 92 106 104
337 339 339 332 331 348 21 8 350 342 34 53 50 41 35 39 40 41 35 29 30 34 27 26 24 20 18 24 36 49 59 66 67 57 45 50 64 69 70 73 86 92 90
339 339 335 333 342 355 20 350 315 74 84 73 62 53 49 45 42 46 40 32 30 34 28 27 24 14 13 19 33 47 56 62 68 66 68 67 65 64 61 64 70 72 75
332 340 350 352 344 343 354 302 276 130 108 92 75 64 63 53 45 46 43 41 32 30 28 27 19 11 14 14 15 27 42 50 61 62 62 64 63 61 56 55 53 52 61
318 334 341 332 328 336 357 19 108 127 117 108 97 82 74 69 53 48 40 38 30 30 34 21 14 16 15 10 31 48 45 47 61 66 56 53 52 55 52 51 50 48 51
314 336 342 338 335 343 355 18 120 136 138 135 136 125 114 98 74 51 29 27 37 40 45 45 46 28 34 36 50 57 58 60 69 72 66 60 57 58 55 54 50 44 43
Height
1546 1542 1538 1534 1531 1528 1525 1522 1520 1518 1516 1515 1515 1515 1516 1517 1518 1520 1522 1525 1527 1529 1532 1534 1536 1538 1540 1542 1544 1546 1548 1550 1552 1553 1554 1555 1556 1557 1558 1559 1560 1561 1562
1544 1539 1536 1532 1529 1526 1523 1520 1517 1514 1512 1511 1510 1510 1511 1511 1512 1515 1516 1519 1521 1524 1526 1528 1531 1534 1536 1539 1541 1543 1545 1546 1549 1550 1551 1552 1554 1553 1555 1556 1557 1558 1560
1545 1539 1534 1531 1527 1523 1520 1517 1514 1511 1509 1507 1506 1505 1506 1506 1508 1509 1511 1513 1516 1519 1521 1523 1526 1529 1531 1534 1536 1539 1541 1543 1545 1546 1548 1549 1549 1550 1551 1552 1553 1555 1556
1545 1539 1534 1529 1525 1522 1518 1515 1512 1509 1506 1504 1502 1502 1501 1501 1502 1504 1506 1508 1511 1513 1515 1518 1520 1523 1526 1528 1531 1534 1536 1539 1540 1542 1544 1546 1546 1548 1548 1549 1549 1551 1552
1545 1539 1534 1529 1525 1520 1516 1513 1510 1507 1504 1501 1500 1498 1498 1498 1498 1499 1501 1503 1505 1508 1510 1513 1516 1519 1521 1524 1526 1529 1531 1534 1536 1538 1539 1541 1542 1543 1545 1545 1546 1548 1549
1545 1539 1533 1528 1523 1519 1515 1511 1508 1505 1502 1499 1497 1496 1495 1495 1495 1496 1497 1499 1501 1504 1506 1509 1511 1514 1517 1519 1522 1524 1526 1529 1531 1533 1535 1536 1538 1539 1540 1541 1543 1544 1545
1544 1538 1532 1527 1522 1517 1514 1510 1507 1503 1501 1498 1496 1494 1493 1493 1493 1494 1495 1497 1498 1500 1502 1505 1508 1510 1512 1515 1517 1520 1522 1524 1526 1528 1530 1532 1533 1535 1536 1537 1539 1540 1541
1545 1539 1534 1528 1523 1518 1514 1510 1507 1503 1501 1498 1496 1494 1493 1493 1493 1493 1494 1496 1497 1499 1501 1503 1505 1507 1509 1512 1514 1515 1517 1520 1522 1523 1526 1527 1529 1531 1532 1534 1535 1536 1537
1547 1541 1535 1529 1524 1520 1515 1512 1508 1505 1502 1499 1497 1495 1494 1494 1494 1494 1495 1495 1496 1498 1499 1501 1503 1505 1507 1509 1511 1513 1515 1516 1518 1520 1522 1523 1525 1527 1528 1530 1531 1533 1533
1548 1543 1537 1531 1526 1522 1518 1514 1510 1507 1505 1502 1500 1498 1497 1496 1496 1496 1496 1496 1497 1498 1500 1501 1502 1504 1505 1507 1509 1511 1512 1514 1515 1517 1519 1521 1522 1524 1525 1527 1528 1529 1531
1551 1546 1541 1535 1530 1525 1521 1518 1514 1511 1508 1506 1504 1502 1500 1499 1499 1498 1498 1498 1499 1499 1500 1502 1503 1504 1505 1506 1508 1509 1511 1512 1514 1515 1517 1519 1520 1521 1523 1524 1525 1526 1528
1554 1550 1545 1539 1534 1530 1526 1521 1518 1515 1512 1509 1507 1506 1504 1503 1502 1501 1501 1501 1501 1501 1502 1502 1503 1504 1505 1507 1508 1509 1510 1512 1513 1514 1516 1517 1518 1520 1521 1522 1523 1524 1526
1556 1552 1548 1543 1539 1534 1530 1526 1523 1520 1517 1514 1511 1509 1508 1506 1505 1504 1504 1503 1503 1503 1503 1503 1504 1505 1506 1507 1508 1509 1510 1511 1513 1514 1515 1516 1517 1519 1520 1520 1522 1523 1524
1559 1555 1551 1547 1543 1539 1535 1531 1527 1524 1521 1518 1515 1513 1511 1510 1509 1508 1507 1506 1506 1505 1505 1505 1506 1506 1507 1507 1508 1510 1511 1512 1513 1514 1515 1516 1517 1518 1519 1520 1520 1521 1522
1561 1557 1554 1551 1547 1543 1539 1536 1532 1529 1526 1523 1520 1517 1515 1514 1512 1511 1510 1509 1509 1508 1507 1507 1507 1507 1508 1508 1509 1510 1511 1512 1513 1514 1515 1516 1517 1518 1519 1519 1520 1521 1522
1562 1559 1556 1553 1550 1547 1543 1540 1536 1533 1530 1527 1524 1522 1520 1518 1516 1514 1513 1512 1511 1510 1510 1509 1509 1508 1508 1508 1509 1509 1511 1512 1513 1514 1516 1517 1518 1518 1519 1520 1521 1521 1522
1564 1561 1558 1556 1553 1550 1547 1543 1540 1537 1534 1531 1528 1526 1523 1521 1519 1518 1516 1515 1514 1513 1512 1511 1510 1509 1509 1509 1509 1509 1510 1512 1513 1514 1516 1517 1518 1519 1520 1521 1521 1522 1523
1565 1563 1560 1557 1555 1552 1550 1547 1544 1541 1538 1535 1532 1530 1527 1525 1523 1521 1519 1518 1517 1515 1514 1513 1512 1511 1510 1510 1510 1510 1510 1511 1513 1514 1516 1517 1519 1520 1521 1522 1522 1523 1523
1566 1564 1561 1559 1557 1554 1552 1549 1547 1544 1541 1538 1535 1533 1531 1529 1527 1525 1523 1521 1520 1518 1517 1515 1514 1513 1512 1511 1511 1511 1511 1512 1513 1514 1516 1518 1519 1520 1521 1522 1523 1524 1524
1566 1564 1562 1560 1558 1556 1554 1551 1549 1546 1543 1541 1539 1537 1535 1533 1530 1528 1526 1525 1523 1521 1520 1518 1517 1515 1514 1513 1512 1513 1513 1513 1514 1515 1516 1518 1519 1520 1521 1522 1523 1524 1525
1566 1565 1563 1561 1559 1557 1555 1553 1551 1549 1546 1544 1542 1540 1538 1536 1534 1532 1530 1528 1526 1524 1523 1521 1519 1518 1516 1515 1515 1515 1515 1515 1516 1516 1517 1519 1520 1521 1522 1523 1524 1525 1526
1566 1564 1563 1561 1559 1558 1556 1554 1552 1551 1549 1547 1544 1542 1540 1538 1537 1535 1533 1531 1529 1528 1526 1524 1522 1521 1519 1518 1517 1517 1517 1517 1518 1518 1519 1520 1521 1522 1523 1524 1525 1525 1526
1566 1564 1563 1561 1560 1558 1557 1555 1554 1552 1550 1548 1546 1545 1543 1541 1540 1538 1536 1534 1532 1531 1529 1527 1525 1524 1523 1521 1521 1520 1520 1520 1520 1521 1521 1522 1523 1524 1525 1525 1526 1526 1527
1566 1564 1563 1562 1560 1559 1557 1556 1555 1553 1552 1550 1549 1547 1546 1544 1543 1541 1539 1537 1535 1534 1532 1530 1529 1527 1526 1525 1524 1523 1523 1523 1523 1523 1524 1525 1525 1526 1526 1527 1527 1528 1528
1565 1564 1563 1562 1561 1559 1558 1557 1555 1554 1553 1552 1550 1549 1548 1547 1546 1544 1542 1541 1539 1537 1535 1534 1532 1531 1529 1528 1527 1526 1526 1525 1525 1526 1526 1527 1527 1527 1528 1529 1529 1529 1530
1565 1564 1563 1562 1561 1559 1558 1557 1556 1555 1554 1553 1552 1551 1550 1549 1548 1547 1545 1544 1542 1540 1539 1537 1535 1534 1532 1531 1530 1529 1529 1528 1528 1529 1529 1529 1529 1529 1530 1530 1531 1531 1531